Keene, NH

6:38 PM EST on November 20, 2017 (GMT -0500)
Dillant-Hopkins

Weather History for KEEN - November, 2011

Change the Weather History Date:

Wednesday, November 16, 2011

  Actual Average Record
Temperature  
Mean Temperature 45 °F -  
Max Temperature 55 °F 46 °F 70 °F (1926)
Min Temperature 35 °F 26 °F 0 °F (1933)
Degree Days  
Heating Degree Days 20    
Moisture  
Dew Point 43 °F    
Average Humidity 89    
Maximum Humidity 100    
Minimum Humidity 72    
Precipitation  
Precipitation 0.19 in - - ()
Sea Level Pressure  
Sea Level Pressure 29.84 in    
Wind  
Wind Speed 1 mph (SSW)    
Max Wind Speed 4 mph    
Max Gust Speed -    
Visibility 6 miles    
Events      
Averages and records for this station are not official NWS values.
T = Trace of Precipitation, MM = Missing Value Source: NWS Daily Summary

Daily Weather History Graph

Daily Weather History Graph

Search for Another Location

Airport or City:

Trip Planner

Search our weather history database for the weather conditions in past years. The results will help you decide how hot, cold, wet, or windy it might be!

Date:

Astronomy

Nov. 16, 2011 Rise Set
Actual Time 6:42 AM EST 4:25 PM EST
Civil Twilight 6:11 AM EST 4:55 PM EST
Nautical Twilight 5:37 AM EST 5:29 PM EST
Astronomical Twilight 5:03 AM EST 6:03 PM EST
Moon 9:36 PM EST (11/16) 11:15 AM EST (11/16)
Length of Visible Light 10h 44m
Length of Day
9h 42m
Waning Gibbous, 70% of the Moon is Illuminated
Nov 16
Waning Gibbous
Nov 18
Last Quarter
Nov 25
New
Dec 2
First Quarter
Dec 10
Full

Hourly Weather History & Observations

Time (EST) Temp. Windchill Dew Point Humidity Pressure Visibility Wind Dir Wind Speed Gust Speed Precip Events Conditions
12:15 AM 42.8 °F 41.1 °F 39.2 °F 87% 29.96 in 10.0 mi South 3.5 mph - N/A   Scattered Clouds
12:35 AM 42.8 °F 41.1 °F 39.2 °F 87% 29.95 in 10.0 mi South 3.5 mph - N/A   Clear
12:55 AM 41.0 °F - 39.2 °F 93% 29.95 in 10.0 mi Calm Calm - N/A   Clear
1:35 AM 41.0 °F - 39.2 °F 93% 29.96 in 5.0 mi Calm Calm - N/A   Clear
2:15 AM 39.2 °F - 35.6 °F 87% 29.96 in 4.0 mi Calm Calm - N/A   Clear
2:55 AM 37.4 °F - 37.4 °F 100% 29.94 in 0.5 mi Calm Calm - N/A   Scattered Clouds
3:15 AM 37.4 °F - 35.6 °F 93% 29.94 in 0.8 mi Calm Calm - N/A   Unknown
3:35 AM 37.4 °F - 33.8 °F 87% 29.94 in 1.0 mi Calm Calm - N/A   Clear
3:55 AM 37.4 °F - 35.6 °F 93% 29.94 in 5.0 mi Calm Calm - N/A   Partly Cloudy
4:15 AM 35.6 °F 32.8 °F 35.6 °F 100% 29.94 in 0.8 mi SSW 3.5 mph - N/A   Unknown
4:35 AM 37.4 °F - 35.6 °F 93% 29.93 in 10.0 mi Calm Calm - N/A   Clear
5:15 AM 35.6 °F - 33.8 °F 93% 29.93 in 2.5 mi Calm Calm - N/A   Clear
5:35 AM 35.6 °F 32.8 °F 33.8 °F 93% 29.93 in 0.8 mi South 3.5 mph - N/A   Unknown
5:55 AM 35.6 °F - 35.6 °F 100% 29.93 in 10.0 mi Calm Calm - N/A   Mostly Cloudy
6:15 AM 35.6 °F - 33.8 °F 93% 29.93 in 9.0 mi Calm Calm - N/A   Mostly Cloudy
6:35 AM 37.4 °F - 35.6 °F 93% 29.92 in 10.0 mi Calm Calm - N/A   Overcast
7:15 AM 37.4 °F - 35.6 °F 93% 29.94 in 8.0 mi Calm Calm - N/A   Mostly Cloudy
7:55 AM 39.2 °F - 37.4 °F 93% 29.94 in 10.0 mi Calm Calm - N/A   Overcast
8:15 AM 39.2 °F - 37.4 °F 93% 29.93 in 10.0 mi Calm Calm - N/A   Mostly Cloudy
8:35 AM 41.0 °F - 37.4 °F 87% 29.93 in 10.0 mi Calm Calm - N/A   Scattered Clouds
8:55 AM 41.0 °F - 39.2 °F 93% 29.94 in 10.0 mi Calm Calm - N/A   Mostly Cloudy
9:15 AM 42.8 °F - 39.2 °F 87% 29.94 in 10.0 mi Calm Calm - N/A   Mostly Cloudy
9:35 AM 42.8 °F - 39.2 °F 87% 29.94 in 10.0 mi Calm Calm - N/A   Overcast
10:15 AM 46.4 °F - 41.0 °F 81% 29.92 in 10.0 mi Calm Calm - N/A   Overcast
10:35 AM 46.4 °F - 41.0 °F 81% 29.91 in 10.0 mi Calm Calm - N/A   Overcast
11:15 AM 50.0 °F - 42.8 °F 76% 29.87 in 10.0 mi Calm Calm - N/A   Clear
11:35 AM 51.8 °F - 44.6 °F 76% 29.85 in 10.0 mi Calm Calm - N/A   Clear
11:55 AM 53.6 °F - 44.6 °F 72% 29.83 in 10.0 mi Calm Calm - N/A   Clear
12:35 PM 53.6 °F - 46.4 °F 77% 29.82 in 10.0 mi Calm Calm - N/A   Mostly Cloudy
12:55 PM 53.6 °F - 46.4 °F 77% 29.81 in 10.0 mi Calm Calm - N/A   Mostly Cloudy
1:15 PM 53.6 °F - 46.4 °F 77% 29.81 in 10.0 mi Calm Calm - N/A   Scattered Clouds
1:35 PM 55.4 °F - 46.4 °F 72% 29.81 in 10.0 mi Calm Calm - N/A   Scattered Clouds
1:55 PM 55.4 °F - 46.4 °F 72% 29.80 in 10.0 mi Calm Calm - N/A   Mostly Cloudy
2:15 PM 55.4 °F - 46.4 °F 72% 29.79 in 10.0 mi Calm Calm - N/A   Mostly Cloudy
2:35 PM 55.4 °F - 46.4 °F 72% 29.79 in 10.0 mi Calm Calm - N/A   Mostly Cloudy
2:55 PM 53.6 °F - 50.0 °F 88% 29.78 in 10.0 mi North 3.5 mph - N/A   Overcast
3:15 PM 53.6 °F - 48.2 °F 82% 29.77 in 10.0 mi Calm Calm - N/A   Overcast
3:35 PM 51.8 °F - 50.0 °F 94% 29.77 in 5.0 mi Calm Calm - 0.01 in   Overcast
3:55 PM 51.8 °F - 50.0 °F 94% 29.78 in 3.0 mi Calm Calm - 0.02 in   Overcast
4:15 PM 51.8 °F - 50.0 °F 94% 29.77 in 2.5 mi Calm Calm - 0.02 in   Overcast
4:35 PM 51.8 °F - 50.0 °F 94% 29.75 in 2.5 mi Calm Calm - 0.03 in   Overcast
4:55 PM 51.8 °F - 48.2 °F 88% 29.75 in 2.5 mi Calm Calm - 0.04 in   Overcast
5:35 PM 51.8 °F - 48.2 °F 88% 29.73 in 1.5 mi Calm Calm - 0.01 in   Mostly Cloudy
6:15 PM 51.8 °F - 48.2 °F 88% 29.73 in 0.5 mi Calm Calm - 0.01 in   Overcast
6:35 PM 50.0 °F - 48.2 °F 94% 29.74 in 1.0 mi Calm Calm - 0.01 in   Overcast
6:55 PM 50.0 °F - 48.2 °F 94% 29.74 in 3.0 mi Calm Calm - 0.02 in   Overcast
7:35 PM 50.0 °F - 48.2 °F 94% 29.74 in 2.0 mi Calm Calm - N/A   Overcast
7:55 PM 50.0 °F - 48.2 °F 94% 29.75 in 1.0 mi Calm Calm - 0.02 in   Overcast
8:35 PM 50.0 °F - 48.2 °F 94% 29.75 in 3.0 mi Calm Calm - 0.04 in   Overcast
8:55 PM 50.0 °F - 48.2 °F 94% 29.75 in 1.2 mi Calm Calm - 0.05 in   Overcast
9:15 PM 50.0 °F - 48.2 °F 94% 29.75 in 0.8 mi Calm Calm - 0.01 in   Overcast
9:55 PM 50.0 °F - 48.2 °F 94% 29.73 in 0.5 mi Calm Calm - 0.02 in   Overcast
10:35 PM 48.2 °F - 46.4 °F 93% 29.72 in 0.8 mi Calm Calm - N/A   Overcast
10:55 PM 48.2 °F - 48.2 °F 100% 29.71 in 0.5 mi Calm Calm - N/A   Overcast
11:15 PM 48.2 °F - 48.2 °F 100% 29.72 in 0.5 mi Calm Calm - N/A   Overcast
11:35 PM 48.2 °F - 48.2 °F 100% 29.73 in 1.8 mi Calm Calm - 0.01 in   Overcast
11:55 PM 48.2 °F - 48.2 °F 100% 29.72 in 2.5 mi Calm Calm - 0.01 in   Mostly Cloudy